This is the latest recevied weather packets stored in our database for station/object OK2JF-6. If no packets are shown the sender has not sent any weather packets the latest 10 day(s).
| Time | Temp. | Humidity | Pressure | Rain* | Wind** | Luminosity | Snow |
|---|---|---|---|---|---|---|---|
| 1777788063 | 12.78° C | 59% | 1090.2 hPa | 0 mm | - | 161 W/m² | - |
| 1777787943 | 12.22° C | 59% | 1090.2 hPa | 0 mm | - | 157 W/m² | - |
| 1777787583 | 12.22° C | 59% | 1090.3 hPa | 0 mm | - | 148 W/m² | - |
| 1777787463 | 12.22° C | 60% | 1090.4 hPa | 0 mm | - | 144 W/m² | - |
| 1777786563 | 11.67° C | 62% | 1090.1 hPa | 0 mm | - | 121 W/m² | - |
| 1777786383 | 11.67° C | 62% | 1090.3 hPa | 0 mm | - | 116 W/m² | - |
| 1777785663 | 11.11° C | 64% | 1090.1 hPa | 0 mm | - | 99 W/m² | - |
| 1777785483 | 11.11° C | 64% | 1090.2 hPa | 0 mm | - | 95 W/m² | - |
| 1777785078 | 10.56° C | 65% | 1089.9 hPa | 0 mm | - | 86 W/m² | - |
| 1777784824 | 10.56° C | 67% | 1090 hPa | 0 mm | - | 80 W/m² | - |
| 1777784763 | 10.56° C | 67% | 1090.1 hPa | 0 mm | - | 78 W/m² | - |
| 1777783983 | 10° C | 72% | 1089.9 hPa | 0 mm | - | 63 W/m² | - |
| 1777783503 | 8.89° C | 75% | 1090.2 hPa | 0 mm | - | 53 W/m² | - |
| 1777782379 | 4.44° C | 89% | 1089.8 hPa | 0 mm | - | 34 W/m² | - |
| 1777782363 | 4.44° C | 89% | 1089.8 hPa | 0 mm | - | 33 W/m² | - |
| 1777782063 | 3.33° C | 90% | 1089.8 hPa | 0 mm | - | 29 W/m² | - |
| 1777782018 | 3.33° C | 90% | 1089.8 hPa | 0 mm | - | 28 W/m² | - |
| 1777781943 | 3.33° C | 90% | 1089.9 hPa | 0 mm | - | 27 W/m² | - |
| 1777781163 | 2.78° C | 88% | 1090.1 hPa | 0 mm | - | 17 W/m² | - |
| 1777781043 | 2.78° C | 88% | 1090.3 hPa | 0 mm | - | 16 W/m² | - |
| 1777780743 | 2.78° C | 88% | 1089.9 hPa | 0 mm | - | 13 W/m² | - |
| 1777780563 | 2.78° C | 88% | 1090.1 hPa | 0 mm | - | 11 W/m² | - |
| 1777780203 | 2.78° C | 88% | 1090.3 hPa | 0 mm | - | 6 W/m² | - |
| 1777780143 | 2.78° C | 87% | 1090.2 hPa | 0 mm | - | 6 W/m² | - |
| 1777780023 | 2.78° C | 88% | 1090.3 hPa | 0 mm | - | 5 W/m² | - |
* Rain latest hour (hover to see other rain measurements)
** Current wind speed in m/s (hover to see current wind gust speed)